sat.trackr.live / text

‹ back to catalog

STARLINK-3804

NORAD 52270 · 2022-041K

PAYLOAD ACTIVE UNKNOWN

§ Identity

Operator
Country
US
Launch date
2022-04-21
Launch site
AFETR
Launch vehicle
Mass (kg)
RCS (m²)

Purposes: comms

External: N2YO · Heavens-Above · Gunter

§ Orbital elements

Epoch: 2026-05-25T03:03:11.134080Z

Period
95.44 min
Inclination
53.2127°
Eccentricity
0.0001284
Mean motion
15.08837588 rev/d
Perigee alt
538.9 km
Apogee alt
540.6 km
Semi-major
6,917.9 km
B*
4.9327e-5
RAAN
126.0073°
Arg perigee
57.8983°
Mean anomaly
302.2133°
Rev number
22,590

§ Raw data

STARLINK-38041 52270U 22041K   26145.12721220  .00000497  00000+0  49327-4 0  99982 52270  53.2127 126.0073 0001284  57.8983 302.2133 15.08837588225907

JSON: /api/v1/satellites/52270 · /tle

For live sub-satellite position, see the globe view (requires WebGL).

§ Visibility from observer

Set your observer location to see the next 7 days of passes ≥ 10°. The values pass through the URL so the page stays shareable.

No JS? Fill the form by hand. The geolocation button needs JavaScript.